This demonstration page uses our WeatherBlox Daily Observations layout. Learn more.

Left ArrowRight Arrow

41.55636, -103.73856

Hourly Observations for August 16, 2021

Temp ( °F °C ) Dew Point ( °F °C ) Humidity (%) Winds ( mph kmh ) Pressure ( in mb ) Visibility ( mi km ) Precip ( " mm )
12:58 am 00:58 Clear 67 19.4 40 4.2 37 37 SSW 6 9 29.91 1013 10 16 0.00 0.00
1:58 am 01:58 Clear 60 15.5 39 4.1 47 47 SW 6 9 29.91 1013 10 16 0.00 0.00
2:58 am 02:58 Clear 60 15.8 38 3.5 44 44 WNW 3 6 29.90 1013 10 16 0.00 0.00
3:58 am 03:58 Clear 59 14.9 39 4.1 49 49 W 6 9 29.90 1013 10 16 0.00 0.00
4:58 am 04:58 Clear 58 14.7 38 3.5 47 47 Calm 29.90 1013 10 16 0.00 0.00
5:58 am 05:58 Clear 59 15 38 3.3 46 46 Calm 29.90 1013 10 16 0.00 0.00
6:58 am 06:58 Sunny 58 14.7 39 4 49 49 W 5 7 29.92 1013 10 16 0.00 0.00
7:58 am 07:58 Sunny 64 17.8 41 5.2 44 44 W 6 9 29.93 1014 10 16 0.00 0.00
8:58 am 08:58 Sunny 73 22.5 42 5.7 34 34 Calm 29.93 1013 10 16 0.00 0.00
9:58 am 09:58 Sunny 79 25.9 41 5 26 26 NNW 6 9 29.91 1013 10 16 0.00 0.00
10:58 am 10:58 Sunny 84 29 38 3.4 19 19 NW 6 9 29.91 1013 10 16 0.00 0.00
11:58 am 11:58 Sunny 88 31 35 1.8 15 15 NW 3 6 29.87 1012 10 16 0.00 0.00
12:58 pm 12:58 Sunny 90 32.3 35 1.4 14 14 NNW 7 11 29.85 1011 10 16 0.00 0.00
1:58 pm 13:58 Sunny 91 33 34 1.1 13 13 Calm 29.84 1011 10 16 0.00 0.00
2:58 pm 14:58 Sunny 93 34.1 35 1.8 13 13 NE 6 9 29.82 1010 10 16 0.00 0.00
3:58 pm 15:58 Sunny 94 34.2 33 0.8 12 12 NNW 3 6 29.80 1009 10 16 0.00 0.00
4:58 pm 16:58 Sunny 93 33.7 37 2.5 14 14 NE 8 13 29.78 1008 10 16 0.00 0.00
5:58 pm 17:58 Sunny 91 32.9 35 1.5 13 13 Calm 29.77 1008 10 16 0.00 0.00
6:58 pm 18:58 Sunny 87 30.3 42 5.5 21 21 SSE 16 26 29.78 1009 10 16 0.00 0.00
7:58 pm 19:58 Clear 82 27.9 40 4.5 22 22 S 16 26 29.78 1008 10 16 0.00 0.00
8:58 pm 20:58 Clear 81 27 41 4.9 24 24 S 18 30 29.76 1008 10 16 0.00 0.00
9:58 pm 21:58 Clear 79 26.3 42 5.3 26 26 S 22 35 29.77 1008 10 16 0.00 0.00
10:58 pm 22:58 Clear 78 25.6 41 5.2 27 27 S 26 43 29.75 1008 10 16 0.00 0.00
11:58 pm 23:58 Clear 76 24.4 41 5.2 29 29 SSW 17 28 29.76 1008 10 16 0.00 0.00

Powered by AerisWeather